Total_Precipitation_Accumulation
0.29 0.03 0.03 0.04 0.05 0.06 0.04 0.00 0.00 0.00 0.02 0.07 0.11 0.14 0.17 0.17 0.24 0.32 0.30 0.31 0.34 0.34 0.38 0.30 0.30 0.33 0.36 0.29 0.22 0.18 0.27 0.65 0.88 0.80 1.10 1.06 1.07 0.69 0.66 0.94 0.95 0.81 1.40
0.25 0.09 0.07 0.06 0.04 0.08 0.11 0.05 0.02 0.02 0.02 0.05 0.11 0.13 0.20 0.23 0.33 0.40 0.39 0.39 0.48 0.55 0.58 0.44 0.38 0.43 0.47 0.40 0.24 0.18 0.16 0.17 0.33 0.42 0.45 0.51 0.71 0.63 0.55 1.05 1.06 0.89 1.40
0.58 0.50 0.40 0.11 0.03 0.05 0.08 0.08 0.06 0.05 0.04 0.07 0.09 0.21 0.33 0.37 0.54 0.52 0.39 0.39 0.71 1.13 0.96 0.69 0.63 0.77 0.64 0.48 0.19 0.12 0.09 0.09 0.07 0.11 0.24 0.40 0.52 0.56 0.53 0.91 1.08 1.10 1.22
1.34 0.88 0.85 0.58 0.10 0.04 0.03 0.03 0.03 0.05 0.06 0.05 0.04 0.13 0.36 0.42 0.36 0.35 0.49 0.57 0.86 1.16 1.31 1.04 1.24 1.63 1.17 0.80 0.40 0.19 0.13 0.06 0.06 0.08 0.24 0.43 0.44 0.53 0.50 0.69 0.79 1.02 1.51
1.15 1.18 1.04 1.11 0.88 0.33 0.16 0.07 0.05 0.09 0.06 0.06 0.07 0.15 0.26 0.28 0.41 0.46 0.89 1.08 1.37 1.28 1.51 1.43 1.37 1.41 1.06 0.98 1.08 0.71 0.33 0.11 0.09 0.14 0.48 0.28 0.23 0.52 0.78 0.78 0.61 1.25 1.29
1.13 1.26 1.46 1.45 0.98 0.60 0.60 0.24 0.08 0.09 0.04 0.05 0.14 0.32 0.31 0.88 1.02 1.18 1.68 2.46 2.54 2.20 2.25 3.18 2.78 1.80 0.91 1.06 1.11 0.72 0.32 0.07 0.09 0.41 1.34 0.52 0.68 0.60 0.90 0.87 0.57 0.68 0.71
1.83 2.55 3.31 2.97 2.41 1.11 0.99 0.77 0.34 0.17 0.09 0.11 0.29 0.72 1.03 1.73 1.49 1.15 0.95 1.02 1.24 2.17 2.19 1.84 1.72 1.71 1.14 0.30 0.15 0.25 0.17 0.07 0.29 0.93 0.71 0.42 0.71 0.81 0.68 0.47 0.32 0.24 0.26
3.36 3.45 5.11 5.72 5.44 4.24 2.67 1.90 1.54 1.36 1.02 0.78 0.55 0.59 0.59 1.03 1.23 0.73 0.40 0.32 0.25 0.30 0.40 0.38 0.33 0.21 0.22 0.09 0.06 0.08 0.08 0.08 0.18 1.19 0.64 0.42 0.55 0.69 0.38 0.22 0.16 0.14 0.12
5.85 5.87 5.26 7.52 5.16 4.08 4.31 3.30 3.33 2.38 2.16 1.90 1.39 0.82 0.43 0.41 0.55 0.32 0.22 0.18 0.14 0.12 0.18 0.25 0.19 0.15 0.08 0.06 0.07 0.06 0.13 0.04 0.14 0.47 0.50 0.23 0.39 0.75 0.54 0.26 0.16 0.15 0.11
6.58 9.36 6.76 6.75 5.25 3.52 3.46 4.01 3.25 3.43 2.81 2.04 1.61 1.32 0.46 0.48 0.39 0.40 0.25 0.22 0.13 0.08 0.11 0.12 0.21 0.24 0.28 0.26 0.08 0.08 0.22 0.17 0.13 0.29 0.38 0.33 0.44 0.66 0.74 0.43 0.29 0.24 0.19
3.69 5.27 5.84 7.31 6.11 3.64 2.52 3.43 2.96 3.65 3.19 2.04 1.59 2.08 0.82 0.40 0.40 0.34 0.20 0.15 0.16 0.10 0.10 0.17 0.38 0.33 0.29 0.26 0.18 0.20 0.21 0.12 0.16 0.10 0.26 0.43 0.45 0.53 0.50 0.42 0.30 0.26 0.28
2.10 2.40 3.33 5.35 6.94 4.40 2.98 2.11 2.21 2.95 4.64 2.34 1.57 1.78 1.45 0.59 0.49 0.32 0.23 0.21 0.23 0.18 0.24 0.51 0.55 0.41 0.23 0.13 0.14 0.23 0.12 0.06 0.09 0.05 0.16 0.32 0.57 0.69 0.78 0.60 0.31 0.19 0.20
1.36 1.46 1.48 2.50 4.26 3.75 3.13 2.60 2.25 2.43 4.18 3.52 1.69 1.25 1.59 0.71 0.70 0.54 0.46 0.51 0.49 0.43 0.54 0.55 0.62 0.62 0.49 0.27 0.22 0.30 0.12 0.05 0.07 0.09 0.31 0.21 0.46 0.65 0.69 0.57 0.31 0.26 0.26
1.21 1.18 1.14 0.97 2.10 2.11 1.86 2.21 2.07 1.43 2.06 3.79 1.92 1.46 1.23 1.21 0.75 0.51 0.32 0.36 0.34 0.31 0.37 0.38 0.56 0.54 0.42 0.37 0.34 0.19 0.12 0.07 0.11 0.27 0.30 0.25 0.34 0.57 0.58 0.43 0.37 0.38 0.28
1.11 1.16 1.07 0.86 1.17 1.69 1.79 1.87 1.57 0.93 1.27 2.74 2.32 1.69 1.08 1.30 1.08 0.74 0.52 0.28 0.21 0.24 0.29 0.24 0.28 0.29 0.25 0.25 0.24 0.17 0.10 0.07 0.09 0.17 0.24 0.28 0.24 0.44 0.45 0.32 0.39 0.43 0.35
0.70 0.58 0.60 0.77 0.72 1.07 1.58 1.29 1.41 0.95 1.01 2.01 2.45 1.76 1.19 0.90 0.93 0.55 0.44 0.41 0.45 0.42 0.29 0.25 0.27 0.24 0.36 0.58 0.59 0.41 0.18 0.08 0.08 0.10 0.15 0.25 0.26 0.26 0.30 0.39 0.30 0.39 0.45
0.49 0.45 0.46 0.50 0.63 1.06 1.36 1.11 1.06 0.94 0.80 1.26 2.05 1.78 1.78 1.05 0.87 0.63 0.45 0.35 0.33 0.40 0.56 0.61 0.49 0.35 0.29 0.35 0.60 0.42 0.26 0.13 0.14 0.11 0.11 0.19 0.31 0.35 0.24 0.25 0.36 0.37 0.42
0.38 0.31 0.31 0.54 0.83 0.95 1.11 1.04 1.13 0.94 0.83 1.21 1.66 1.67 1.84 1.72 0.83 0.80 0.61 0.34 0.29 0.48 0.73 0.88 0.64 0.33 0.29 0.30 0.31 0.20 0.11 0.12 0.12 0.09 0.08 0.07 0.12 0.22 0.28 0.19 0.18 0.23 0.26
0.12 0.17 0.51 0.82 1.19 1.41 1.32 1.28 1.78 1.60 1.33 1.19 1.53 1.52 1.18 1.73 1.17 0.76 0.66 0.41 0.41 0.36 0.51 0.84 0.83 0.69 0.46 0.29 0.29 0.29 0.13 0.08 0.11 0.13 0.12 0.10 0.10 0.11 0.19 0.16 0.16 0.17 0.16
0.13 0.12 0.68 1.07 1.36 1.46 2.16 2.03 1.86 1.36 1.31 1.21 1.38 1.33 1.15 1.31 1.49 1.06 0.78 0.61 0.61 0.69 0.59 0.57 0.74 0.74 0.75 0.65 0.61 0.50 0.30 0.17 0.16 0.17 0.17 0.15 0.18 0.23 0.19 0.21 0.10 0.09 0.13
0.12 0.31 0.81 1.22 1.53 1.22 0.84 0.67 0.93 0.85 0.81 1.07 1.36 1.12 0.84 1.04 1.20 1.42 0.95 0.64 0.61 0.68 0.74 0.95 0.92 0.82 0.55 0.77 1.18 0.98 0.71 0.36 0.27 0.20 0.20 0.20 0.19 0.19 0.23 0.26 0.18 0.10 0.06
0.27 0.38 0.41 0.37 0.54 0.23 0.16 0.25 0.56 0.64 0.75 0.87 1.10 0.88 0.78 0.98 1.24 1.28 1.21 1.08 0.71 0.70 0.80 1.22 1.26 1.23 0.74 1.05 1.31 1.42 1.11 0.93 0.52 0.37 0.31 0.31 0.26 0.28 0.25 0.27 0.24 0.18 0.07
0.15 0.17 0.06 0.06 0.27 0.23 0.13 0.24 0.50 0.84 1.02 1.19 1.44 1.29 0.92 1.09 1.10 1.33 1.09 1.34 1.21 1.21 1.05 1.21 1.43 1.23 0.83 0.97 1.14 1.25 1.24 1.02 0.76 0.67 0.56 0.45 0.43 0.34 0.32 0.33 0.45 0.39 0.21
0.02 0.03 0.02 0.07 0.14 0.20 0.26 0.33 0.43 0.68 0.73 0.84 0.89 1.14 0.95 0.93 1.08 1.23 1.31 1.46 1.46 1.39 1.38 1.27 1.46 1.38 1.32 1.01 1.21 1.00 0.89 0.88 0.94 0.77 0.66 0.64 0.62 0.53 0.47 0.45 0.45 0.50 0.46
0.04 0.04 0.10 0.13 0.16 0.15 0.23 0.41 0.35 0.47 0.63 0.75 0.91 1.17 1.33 0.98 0.81 0.84 1.13 1.29 1.44 1.41 1.35 1.42 1.40 1.51 1.47 1.62 1.65 1.70 1.60 1.47 1.54 1.56 1.21 0.77 0.73 0.73 0.76 0.82 0.88 0.81 0.63
0.12 0.17 0.16 0.16 0.19 0.21 0.29 0.39 0.41 0.36 0.36 0.38 0.67 1.04 1.71 1.70 1.16 0.95 1.03 1.09 1.24 1.36 1.25 1.48 1.56 1.44 1.70 1.79 1.85 2.14 2.23 2.24 2.10 2.09 2.01 1.50 1.04 0.72 0.63 0.72 0.78 0.77 0.82